Location: Newark
(25.6108°S, 54.5803°W)
Time: 06:08:10
(UTC+00:00)

deb Explorer IX - Pass Details

Date: 03 November 2020
Orbit: 538 x 1104 km, 38.8° (Epoch: 27 November)

Event Time Altitude Azimuth Distance (km) Brightness Sun altitude
Rises 17:05:38 0° 302° (WNW) 3,869 ? 63.7°
Reaches altitude 10° 17:08:29 10° 301° (WNW) 2,875 ? 63.1°
Maximum altitude 17:15:32 87° 214° (SSW) 983 ? 61.6°
Drops below altitude 10° 17:21:44 10° 122° (ESE) 2,537 ? 60.2°
Sets 17:24:07 0° 122° (ESE) 3,391 ? 59.7°
